Weather History for Winnipeg, MB

Change the Weather History Date:

Saturday, June 15, 2013

  Actual Average Record
Temperature  
Mean Temperature 66 °F -  
Max Temperature 78 °F 68 °F 86 °F (2003)
Min Temperature 55 °F 48 °F 37 °F (1999)
Cooling Degree Days 2    
Growing Degree Days 16 (Base 50)    
Moisture  
Dew Point 51 °F    
Average Humidity 60    
Maximum Humidity 83    
Minimum Humidity 25    
Precipitation  
Precipitation 0.04 in - - ()
Sea Level Pressure  
Sea Level Pressure 29.76 in    
Wind  
Wind Speed 13 mph ()    
Max Wind Speed 24 mph    
Max Gust Speed 36 mph    
Visibility 14.1 miles    
Events Rain    
Averages and records for this station are not official NWS values.
T = Trace of Precipitation, MM = Missing Value Source: Averaged Metar Reports

Daily Weather History Graph

Daily Weather History Graph

Search for Another Location

Airport:

Trip Planner

Search our weather history database for the weather conditions in past years. The results will help you decide how hot, cold, wet, or windy it might be!

Date:

Astronomy

Jun. 15, 2013 Rise Set
Actual Time 5:19 AM CDT 9:39 PM CDT
Civil Twilight 4:35 AM CDT 10:23 PM CDT
Nautical Twilight 3:30 AM CDT 11:28 PM CDT
Astronomical Twilight 2:01 AM CDT 12:57 AM CDT
Moon 12:32 PM CDT (6/15) 12:42 AM CDT (6/15)
Length of Visible Light 17h 48m
Length of Day
16h 19m
Waxing Crescent, 40% of the Moon is Illuminated
Jun 15
Waxing Crescent
Jun 16
First Quarter
Jun 23
Full
Jun 29
Last Quarter
Jul 8
New

Hourly Weather History & Observations

Time (CDT) Temp. Dew Point Humidity Pressure Visibility Wind Dir Wind Speed Gust Speed Precip Events Conditions
12:00 AM 66.2 °F 60.8 °F 83% 29.75 in 15.0 mi SSW 13.8 mph - N/A   Mostly Cloudy
1:00 AM 62 °F 54 °F 68% 29.75 in 9 mi Calm Calm - -  
1:00 AM 62.6 °F 51.8 °F 68% 29.75 in 15.0 mi WSW 11.5 mph - N/A   Mostly Cloudy
2:00 AM 59.0 °F 51.8 °F 77% 29.78 in 15.0 mi West 11.5 mph - N/A   Scattered Clouds
3:00 AM 57.2 °F 51.8 °F 82% 29.78 in 15.0 mi WSW 11.5 mph - N/A   Partly Cloudy
4:00 AM 57.2 °F 50.0 °F 77% 29.77 in 15.0 mi WSW 15.0 mph - N/A   Partly Cloudy
5:00 AM 55.4 °F 50.0 °F 82% 29.80 in 15.0 mi WSW 13.8 mph - N/A   Partly Cloudy
6:00 AM 57.2 °F 50.0 °F 77% 29.81 in 15.0 mi WSW 13.8 mph - N/A   Clear
7:00 AM 59 °F 52 °F 71% 29.80 in 9 mi Calm Calm - -  
7:00 AM 59.0 °F 50.0 °F 72% 29.81 in 15.0 mi WSW 12.7 mph - N/A   Clear
8:00 AM 62.6 °F 51.8 °F 68% 29.81 in 15.0 mi WSW 12.7 mph 19.6 mph N/A   Partly Cloudy
9:00 AM 64.4 °F 51.8 °F 64% 29.79 in 15.0 mi WSW 17.3 mph - N/A   Partly Cloudy
10:00 AM 68.0 °F 50.0 °F 52% 29.78 in 15.0 mi WSW 17.3 mph 24.2 mph N/A   Partly Cloudy
11:00 AM 71.6 °F 50.0 °F 46% 29.76 in 15.0 mi WSW 16.1 mph 25.3 mph N/A   Partly Cloudy
12:00 PM 73.4 °F 46.4 °F 38% 29.74 in 15.0 mi WSW 19.6 mph 26.5 mph N/A   Partly Cloudy
1:00 PM 77 °F 48 °F 25% 29.73 in 9 mi Calm Calm - -  
1:00 PM 77.0 °F 48.2 °F 36% 29.73 in 15.0 mi WSW 18.4 mph - N/A   Scattered Clouds
2:00 PM 77.0 °F 46.4 °F 34% 29.72 in 15.0 mi WSW 17.3 mph 24.2 mph N/A   Scattered Clouds
3:00 PM 77.0 °F 46.4 °F 34% 29.71 in 15.0 mi West 19.6 mph 32.2 mph N/A   Mostly Cloudy
4:00 PM 77.0 °F 46.4 °F 34% 29.71 in 15.0 mi WSW 19.6 mph 27.6 mph N/A   Mostly Cloudy
5:00 PM 75.2 °F 48.2 °F 38% 29.71 in 15.0 mi West 17.3 mph 27.6 mph N/A   Mostly Cloudy
6:00 PM 66.2 °F 50.0 °F 56% 29.73 in 15.0 mi WNW 24.2 mph 35.7 mph N/A Rain Light Rain Showers
7:00 PM 66 °F 57 °F 65% 29.73 in 9 mi Calm Calm - -  
7:00 PM 66.2 °F 55.4 °F 68% 29.74 in 15.0 mi West 8.1 mph - N/A   Mostly Cloudy
8:00 PM 64.4 °F 53.6 °F 68% 29.74 in 15.0 mi WSW 8.1 mph - N/A   Mostly Cloudy
9:00 PM 64.4 °F 51.8 °F 64% 29.74 in 15.0 mi WSW 11.5 mph 17.3 mph N/A   Mostly Cloudy
10:00 PM 64.4 °F 51.8 °F 64% 29.75 in 15.0 mi WSW 9.2 mph - N/A   Mostly Cloudy
11:00 PM 62.6 °F 51.8 °F 68% 29.75 in 15.0 mi WSW 9.2 mph - N/A   Mostly Cloudy